This demonstration page uses our WeatherBlox Daily Observations layout. Learn more.

39.29038, -76.61219

Hourly Observations for December 31, 2018

Temp ( °F °C ) Dew Point ( °F °C ) Humidity (%) Winds ( mph kmh ) Pressure ( in mb ) Visibility ( mi km ) Precip ( " mm )
12:54 am 00:54 undefined 40 4.4 34 1.1 79 79 undefined N/A 30.27 1025 N/A 0 0
1:54 am 01:54 undefined 40 4.4 34 1.1 79 79 undefined N/A 30.28 1026 N/A 0 0
2:54 am 02:54 undefined 39 3.9 34 1.1 82 82 undefined N/A 30.29 1026 N/A 0 0
3:54 am 03:54 undefined 38 3.3 34 1.1 86 86 undefined N/A 30.27 1025 N/A 0 0
4:54 am 04:54 undefined 38 3.3 36 2.2 93 93 undefined N/A 30.27 1025 N/A 0 0
5:54 am 05:54 undefined 39 3.9 36 2.2 89 89 undefined N/A 30.29 1026 N/A 0 0
6:54 am 06:54 undefined 40 4.4 35 1.7 83 83 undefined N/A 30.31 1027 N/A 0 0
7:54 am 07:54 undefined 40 4.4 35 1.7 83 83 undefined N/A 30.29 1026 N/A 0 0
8:54 am 08:54 undefined 41 5 36 2.2 82 82 undefined N/A 30.34 1028 N/A 0 0
9:54 am 09:54 undefined 42 5.6 36 2.2 79 79 undefined N/A 30.32 1027 N/A 0 0
10:54 am 10:54 undefined 42 5.6 37 2.8 82 82 undefined N/A 30.29 1026 N/A 0 0
11:54 am 11:54 undefined 43 6.1 37 2.8 80 80 undefined N/A 30.24 1024 N/A 0 0
12:54 pm 12:54 undefined 43 6.1 39 3.9 86 86 undefined N/A 30.19 1023 N/A 0.02 0.508
1:54 pm 13:54 undefined 43 6.1 40 4.4 89 89 undefined N/A 30.17 1022 N/A 0.14 3.556
2:54 pm 14:54 undefined 44 6.7 41 5 89 89 undefined N/A 30.14 1021 N/A 0.15 3.81
3:54 pm 15:54 undefined 45 7.2 43 6.1 93 93 undefined N/A 30.12 1020 N/A 0.09 2.286
4:54 pm 16:54 undefined 46 7.8 43 6.1 89 89 undefined N/A 30.08 1019 N/A 0.02 0.508
5:54 pm 17:54 undefined 47 8.3 45 7.2 93 93 undefined N/A 30.05 1018 N/A 0.02 0.508
6:54 pm 18:54 undefined 47 8.3 45 7.2 93 93 undefined N/A 30.03 1017 N/A 0.06 1.524
7:54 pm 19:54 undefined 47 8.3 45 7.2 93 93 undefined N/A 29.98 1015 N/A 0.03 0.762
8:54 pm 20:54 undefined 47 8.3 45 7.2 93 93 undefined N/A 29.94 1014 N/A 0.02 0.508
9:54 pm 21:54 undefined 48 8.9 46 7.8 93 93 undefined N/A 29.9 1013 N/A 0.01 0.254
10:54 pm 22:54 undefined 47 8.3 46 7.8 97 97 undefined N/A 29.86 1011 N/A 0.03 0.762
11:54 pm 23:54 undefined 48 8.9 46 7.8 93 93 undefined N/A 29.82 1010 N/A 0.04 1.016

Powered by AerisWeather